User: anonymous   Login
Location: Unspecified
(49.8670°N, 0.0000°E)
Time: 09:05:12
(UTC+00:00)
Language:

Transit 4A - Orbit

View from above orbital plane
View from above orbital plane
View from above satellite
View from above satellite

Ground track
Ground track

The orbit data is extracted from the following two-line orbital elements,

1   116U 61015A   19174.95034928 -.00000075 +00000-0 +13942-5 0  9990
2   116 066.8104 007.0462 0082673 261.6370 097.5330 13.91753951941796
Epoch (UTC): 23 June 2019 22:48:30
Eccentricity: 0.0082673
inclination: 66.8104°
perigee height: 862 km
apogee height: 983 km
right ascension of ascending node: 7.0462°
argument of perigee: 261.6370°
revolutions per day: 13.91753951
mean anomaly at epoch: 97.5330°
orbit number at epoch: 94179

The dashed part of the orbit path shows where the satellite is in the earth's shadow,  

DLR